{"data":{"norad_id":27663,"epoch":"2026-09-17T20:36:16.192800Z","epoch_age_seconds":242722,"freshness":"STALE","line1":"1 27663U 03005A   26260.85852075  .00000017  00000+0  00000+0 0  9994","line2":"2 27663  54.8679 211.2898 0150561  53.6734 317.9316  2.00555608173172","mean_motion":2.00555608,"eccentricity":0.0150561,"inclination_deg":54.8679,"raan_deg":211.2898,"arg_perigee_deg":53.6734,"mean_anomaly_deg":317.9316,"bstar":0,"rev_number":17317,"period_min":718.00535241079,"perigee_km":19783.010891754,"apogee_km":20582.822655192,"semimajor_km":26561.053773473,"source":"CELESTRAK","updated_at":"2026-09-20T09:00:46.084348Z"}}